Regional Weather Roundup
Issued by NWS Jackson, KY

Home | Current Version | Previous Version | Text Only | Print | Product List | Glossary Off
Versions: 1 2 3 4 5 6 7 8 9 10 11 12 13 14 15 16 17 18 19 20 21 22 23 24 25 26 27 28 29 30 31 32 33 34 35 36 37 38 39 40 41 42 43 44 45 46 47 48 49 50

000
ASUS43 KJKL 290010
RWRJKL

EAST KENTUCKY HOURLY WEATHER ROUNDUP
NATIONAL WEATHER SERVICE JACKSON KY
800 PM EDT FRI APR 28 2017

NOTE: "FAIR" INDICATES FEW OR NO CLOUDS BELOW 12,000 FEET WITH
NO SIGNIFICANT WEATHER AND/OR OBSTRUCTIONS TO VISIBILITY.

* THESE REPORTS ARE NOT UNDER NWS QUALITY CONTROL AND MAY NOT
  REPORT WEATHER SUCH AS PRECIPITATION AND FOG.

KYZ079-080-083-085-087-088-110-112-115-119-120-290100
...EASTERN KENTUCKY...

CITY           SKY/WX    TMP DP  RH WIND       PRES   REMARKS
JACKSON        CLEAR     77  58  51 VRB3      29.96R
6HR MIN TEMP:  77; 6HR MAX TEMP:  84;

LONDON         MOCLDY    78  60  53 S9        29.95S
6HR MIN TEMP:  78; 6HR MAX TEMP:  82;

SOMERSET*      CLOUDY    77  61  57 S6        29.94R
MONTICELLO*    CLOUDY    78  64  61 S8        29.95R
6HR MIN TEMP:  78; 6HR MAX TEMP:  83;

WILLIAMSBURG*  CLEAR     75  63  64 S9        29.96S
MIDDLESBORO*   CLEAR     77  64  63 S5        29.99R
6HR MIN TEMP:  77; 6HR MAX TEMP:  82;

HARLAN APT*    MOCLDY    77  61  57 SW6       30.01R
PIKE CO APT*     N/A     79  52  38 CALM      29.95S
BIG SANDY APT* PTCLDY    79  54  41 CALM      29.94S
6HR MIN TEMP:  77; 6HR MAX TEMP:  85;

MOREHEAD APT*  MOCLDY    75  55  50 SW5       29.93R
$$

KYZ035-036-041-042-044-050-067-078-099-290100
...CENTRAL KENTUCKY...

CITY           SKY/WX    TMP DP  RH WIND       PRES   REMARKS
MT STERLING*   CLOUDY    77  61  57 SW8       29.93R
FLEMING/MASON* CLOUDY    72  56  57 SE6       29.90S
DANVILLE*      MOCLDY    73  61  64 S7        29.92R
LEXINGTON      CLOUDY    77  59  53 S12       29.89S
6HR MIN TEMP:  74; 6HR MAX TEMP:  81;

FRANKFORT      MOCLDY    77  60  55 S14       29.85S
6HR MIN TEMP:  74; 6HR MAX TEMP:  78;

LOUISVILLE     CLOUDY    75  65  70 S8        29.83S
6HR MIN TEMP:  73; 6HR MAX TEMP:  79; 6HR PCP: TRACE;

LEBANON*         N/A     75  63  64 S10G18    29.89R
GLASGOW*       CLOUDY    76  65  67 S6        29.88S
BOWLING GREEN  CLOUDY    78  68  71 S7        29.87S
6HR MIN TEMP:  77; 6HR MAX TEMP:  81; 6HR PCP: TRACE;

$$

KYZ091>093-OHZ055-061-077-WVZ005-015-034-035-042-290100
...SOUTHERN OHIO/WEST VIRGINIA...

CITY           SKY/WX    TMP DP  RH WIND       PRES   REMARKS
COVINGTON      LGT RAIN  70  59  68 SE3       29.85F
COLUMBUS       LGT RAIN  68  50  52 NE13      29.92S
DAYTON         TSTM      58  55  90 E10       29.90F FOG
WILMINGTON     LGT RAIN  67  57  70 E7        29.87F
HUNTINGTON     MOCLDY    78  54  43 SE3       29.89F
CHARLESTON     CLOUDY    76  55  48 VRB3      29.91F
PINEVILLE*     CLOUDY    74  52  46 MISG      30.02R
BECKLEY        CLOUDY    74  53  48 S5        30.02S
BLUEFIELD      PTCLDY    73  55  53 SE12G21   30.07R
LOGAN CO APT*  CLOUDY    81  39  22 CALM      29.95S
$$

VAZ002-007-008-TNZ017-027-036-066-071-290100
...SOUTHWEST VIRGINIA/EAST TENNESSEE...

CITY           SKY/WX    TMP DP  RH WIND       PRES   REMARKS
WISE*          CLOUDY    73  52  46 SW6       30.05R
JONESVILLE*      N/A     79  64  61 W6        30.01R
ABINGDON*      CLEAR     78  58  50 W5        30.02R
BRISTOL        MOCLDY    79  59  50 S7        29.99R
MORRISTOWN*    CLEAR     79  64  61 W8        29.98R
SEVIERVILLE*   CLEAR     79  64  61 CALM      29.97R
KNOXVILLE      PTCLDY    80  62  54 SW10      29.97R
LAFOLLETTE*    CLOUDY    79  66  65 CALM      30.00R
OAK RIDGE      MOCLDY    79  66  64 CALM      29.98R
CROSSVILLE     MOCLDY    75  63  66 VRB7      30.01R
NASHVILLE      PTCLDY    80  67  64 S9        29.89R
$$

...KEY TO REMARKS...
VSB - VISIBILITY IN MILES
WCI - WIND CHILL INDEX
HX  - HEAT INDEX

$$



USA.gov is the U.S. government's official web portal to all federal, state and local government web resources and services.